Regional Weather Roundup
Issued by NWS

Home | Current Version | Previous Version | Graphics & Text | Print | Product List | Glossary On
Versions: 1 2 3 4 5 6 7 8 9 10 11 12 13 14 15 16 17 18 19 20 21 22 23 24 25 26 27 28 29 30 31 32 33 34 35 36 37 38 39 40 41 42 43 44 45 46 47 48 49 50
000
ASUS43 KFSD 012310
RWRSD

WEATHER ROUNDUP FOR SOUTH DAKOTA
NATIONAL WEATHER SERVICE SIOUX FALLS SD
600 PM CDT TUE SEP 01 2015

NOTE: "FAIR" INDICATES FEW OR NO CLOUDS BELOW 12,000 FEET WITH NO
SIGNIFICANT WEATHER AND/OR OBSTRUCTIONS TO VISIBILITY.


SDZ001>005-009-010-012>017-020000-
NORTHWEST AND NORTH CENTRAL SOUTH DAKOTA

CITY           SKY/WX    TMP DP  RH WIND       PRES   REMARKS
BUFFALO          N/A     88  55  32 E7        29.76S
FAITH            N/A     88  52  29 SW9       29.80S
MOBRIDGE       SUNNY     90  67  46 S15       29.74S
$$

SDZ012>016-024>037-041>051-057-063-072>074-020000-
SOUTHWEST AND SOUTH CENTRAL SOUTH DAKOTA

CITY           SKY/WX    TMP DP  RH WIND       PRES   REMARKS
RAPID CTY ARPT SUNNY     86  58  38 NE10      29.84S
PIERRE         SUNNY     91  60  35 SE22G29   29.75S
CUSTER         SUNNY     83  33  16 SW8G17    30.01S
ELLSWORTH AFB  SUNNY     88  53  29 NE9       29.84S
PHILIP         SUNNY     94  51  23 S6        29.75S
PINE RIDGE     SUNNY     93  39  15 W10       29.85S
WINNER         FAIR      88  61  40 SE15      29.82F
$$

SDZ004>011-016>023-039-040-020000-
NORTHEAST SOUTH DAKOTA

CITY           SKY/WX    TMP DP  RH WIND       PRES   REMARKS
ABERDEEN       SUNNY     85  66  53 S9        29.81S
WATERTOWN      CLOUDY    81  65  58 SE7       29.85F
BROOKINGS      CLOUDY    75  70  83 SE9       29.90R
SISSETON         N/A     82  72  71 SE10      29.83R
$$

SDZ017-020-022-023-036>040-048>070-020000-
SOUTHEAST SOUTH DAKOTA

CITY           SKY/WX    TMP DP  RH WIND       PRES   REMARKS
SIOUX FALLS    CLOUDY    76  71  85 CALM      29.87F
HURON          SUNNY     83  67  58 SE15      29.81R
CHAMBERLAIN    SUNNY     82  68  63 SE13      29.83S
MITCHELL       MOSUNNY   80  71  74 SE13G23   29.84R
YANKTON        CLOUDY    81  72  74 E3        29.83S
$$

ABBREVIATIONS USED IN REMARKS
   TC - TEMPERATURE IN CELSIUS
  WCI - WIND CHILL INDEX
   HX - HEAT INDEX
  VSB - VISIBILITY




USA.gov is the U.S. government's official web portal to all federal, state and local government web resources and services.